Time,TemperatureF,DewpointF,PressureIn,WindDirection,WindDirectionDegrees,WindSpeedMPH,WindSpeedGustMPH,Humidity,HourlyPrecipIn,Conditions,Clouds,dailyrainin,SolarRadiationWatts/m^2,SoftwareType,DateUTC
2013-09-14 00:02:00,44.8,40.9,30.16,ENE,70,0.0,0.0,86,0.00,,,0.00,0,Wunderground v.1.15,2013-09-14 05:02:00,
2013-09-14 00:07:00,44.5,40.6,30.16,ENE,70,0.0,2.0,86,0.00,,,0.00,0,Wunderground v.1.15,2013-09-14 05:07:00,
2013-09-14 00:12:00,44.3,40.4,30.16,ENE,70,0.0,0.0,86,0.00,,,0.00,0,Wunderground v.1.15,2013-09-14 05:12:00,
2013-09-14 00:18:00,44.1,40.2,30.15,ENE,70,0.0,0.0,86,0.00,,,0.00,0,Wunderground v.1.15,2013-09-14 05:18:00,
2013-09-14 00:24:00,43.8,40.2,30.15,ENE,70,0.0,0.0,87,0.00,,,0.00,0,Wunderground v.1.15,2013-09-14 05:24:00,
2013-09-14 00:29:00,43.7,40.1,30.15,ENE,70,0.0,0.0,87,0.00,,,0.00,0,Wunderground v.1.15,2013-09-14 05:29:00,
2013-09-14 00:34:00,43.5,39.9,30.15,ENE,70,0.0,0.0,87,0.00,,,0.00,0,Wunderground v.1.15,2013-09-14 05:34:00,
2013-09-14 00:40:00,43.4,39.8,30.15,ENE,70,0.0,0.0,87,0.00,,,0.00,0,Wunderground v.1.15,2013-09-14 05:40:00,
2013-09-14 00:45:00,43.2,39.9,30.15,ENE,70,0.0,0.0,88,0.00,,,0.00,0,Wunderground v.1.15,2013-09-14 05:45:00,
2013-09-14 00:50:00,43.2,39.9,30.14,ENE,70,0.0,0.0,88,0.00,,,0.00,0,Wunderground v.1.15,2013-09-14 05:50:00,
2013-09-14 00:56:00,43.1,40.1,30.15,ENE,70,0.0,0.0,89,0.00,,,0.00,0,Wunderground v.1.15,2013-09-14 05:56:00,
2013-09-14 01:01:00,43.1,40.1,30.14,ENE,70,0.0,0.0,89,0.00,,,0.00,0,Wunderground v.1.15,2013-09-14 06:01:00,
2013-09-14 01:06:00,43.0,40.0,30.15,ENE,70,0.0,0.0,89,0.00,,,0.00,0,Wunderground v.1.15,2013-09-14 06:06:00,
2013-09-14 01:12:00,43.0,40.3,30.15,ENE,70,0.0,0.0,90,0.00,,,0.00,0,Wunderground v.1.15,2013-09-14 06:12:00,
2013-09-14 01:17:00,43.0,40.3,30.15,ENE,70,0.0,0.0,90,0.00,,,0.00,0,Wunderground v.1.15,2013-09-14 06:17:00,
2013-09-14 01:22:00,43.1,40.4,30.15,ENE,70,0.0,0.0,90,0.00,,,0.00,0,Wunderground v.1.15,2013-09-14 06:22:00,
2013-09-14 01:28:00,43.1,40.4,30.15,ENE,70,0.0,0.0,90,0.00,,,0.00,0,Wunderground v.1.15,2013-09-14 06:28:00,
2013-09-14 01:33:00,43.2,40.8,30.16,ENE,70,0.0,0.0,91,0.00,,,0.00,0,Wunderground v.1.15,2013-09-14 06:33:00,
2013-09-14 01:38:00,43.3,40.8,30.16,ENE,70,0.0,0.0,91,0.00,,,0.00,0,Wunderground v.1.15,2013-09-14 06:38:00,
2013-09-14 01:44:00,43.5,41.0,30.16,ENE,70,0.0,0.0,91,0.00,,,0.00,0,Wunderground v.1.15,2013-09-14 06:44:00,
2013-09-14 01:49:00,43.5,41.0,30.16,ENE,70,0.0,0.0,91,0.00,,,0.00,0,Wunderground v.1.15,2013-09-14 06:49:00,
2013-09-14 01:54:00,43.6,41.1,30.16,ENE,70,0.0,0.0,91,0.00,,,0.00,0,Wunderground v.1.15,2013-09-14 06:54:00,
2013-09-14 02:00:00,43.5,41.0,30.16,ENE,70,0.0,0.0,91,0.00,,,0.00,0,Wunderground v.1.15,2013-09-14 07:00:00,
2013-09-14 02:05:00,43.4,40.7,30.15,ENE,70,0.0,0.0,90,0.00,,,0.00,0,Wunderground v.1.15,2013-09-14 07:05:00,
2013-09-14 02:10:00,43.3,40.8,30.15,ENE,70,0.0,0.0,91,0.00,,,0.00,0,Wunderground v.1.15,2013-09-14 07:10:00,
2013-09-14 02:15:00,43.3,40.8,30.15,ENE,70,0.0,0.0,91,0.00,,,0.00,0,Wunderground v.1.15,2013-09-14 07:15:00,
2013-09-14 02:20:00,43.2,40.5,30.15,ENE,70,0.0,0.0,90,0.00,,,0.00,0,Wunderground v.1.15,2013-09-14 07:20:00,
2013-09-14 02:25:00,43.1,40.7,30.15,ENE,70,0.0,0.0,91,0.00,,,0.00,0,Wunderground v.1.15,2013-09-14 07:25:00,
2013-09-14 02:30:00,43.0,40.6,30.15,ENE,70,0.0,0.0,91,0.00,,,0.00,0,Wunderground v.1.15,2013-09-14 07:30:00,
2013-09-14 02:35:00,42.9,40.2,30.15,ENE,70,0.0,0.0,90,0.00,,,0.00,0,Wunderground v.1.15,2013-09-14 07:35:00,
2013-09-14 02:40:00,42.8,40.1,30.14,ENE,70,0.0,0.0,90,0.00,,,0.00,0,Wunderground v.1.15,2013-09-14 07:40:00,
2013-09-14 02:45:00,42.7,40.0,30.15,ENE,70,0.0,0.0,90,0.00,,,0.00,0,Wunderground v.1.15,2013-09-14 07:45:00,
2013-09-14 02:50:00,42.6,40.2,30.15,ENE,70,0.0,0.0,91,0.00,,,0.00,0,Wunderground v.1.15,2013-09-14 07:50:00,
2013-09-14 02:55:00,42.6,40.2,30.15,ENE,70,0.0,0.0,91,0.00,,,0.00,0,Wunderground v.1.15,2013-09-14 07:55:00,
2013-09-14 03:00:00,42.6,40.2,30.15,ENE,70,0.0,0.0,91,0.00,,,0.00,0,Wunderground v.1.15,2013-09-14 08:00:00,
2013-09-14 03:05:00,42.6,40.2,30.15,ENE,70,0.0,0.0,91,0.00,,,0.00,0,Wunderground v.1.15,2013-09-14 08:05:00,
2013-09-14 03:10:00,42.6,40.2,30.15,ENE,70,0.0,0.0,91,0.00,,,0.00,0,Wunderground v.1.15,2013-09-14 08:10:00,
2013-09-14 03:15:00,42.5,40.1,30.15,ENE,70,0.0,0.0,91,0.00,,,0.00,0,Wunderground v.1.15,2013-09-14 08:15:00,
2013-09-14 03:20:00,42.5,40.1,30.15,ENE,70,0.0,0.0,91,0.00,,,0.00,0,Wunderground v.1.15,2013-09-14 08:20:00,
2013-09-14 03:25:00,42.4,40.0,30.15,ENE,70,0.0,0.0,91,0.00,,,0.00,0,Wunderground v.1.15,2013-09-14 08:25:00,
2013-09-14 03:30:00,42.3,39.9,30.15,ENE,70,0.0,0.0,91,0.00,,,0.00,0,Wunderground v.1.15,2013-09-14 08:30:00,
2013-09-14 03:35:00,42.2,39.8,30.15,ENE,70,0.0,0.0,91,0.00,,,0.00,0,Wunderground v.1.15,2013-09-14 08:35:00,
2013-09-14 03:40:00,42.1,39.7,30.15,ENE,70,0.0,0.0,91,0.00,,,0.00,0,Wunderground v.1.15,2013-09-14 08:40:00,
2013-09-14 03:45:00,41.9,39.5,30.15,ENE,70,0.0,0.0,91,0.00,,,0.00,0,Wunderground v.1.15,2013-09-14 08:45:00,
2013-09-14 03:50:00,41.8,39.4,30.15,ENE,70,0.0,0.0,91,0.00,,,0.00,0,Wunderground v.1.15,2013-09-14 08:50:00,
2013-09-14 03:55:00,41.6,39.2,30.15,ENE,70,0.0,0.0,91,0.00,,,0.00,0,Wunderground v.1.15,2013-09-14 08:55:00,
2013-09-14 04:00:00,41.5,39.1,30.15,ENE,70,0.0,0.0,91,0.00,,,0.00,0,Wunderground v.1.15,2013-09-14 09:00:00,
2013-09-14 04:05:00,41.5,39.1,30.15,ENE,70,0.0,0.0,91,0.00,,,0.00,0,Wunderground v.1.15,2013-09-14 09:05:00,
2013-09-14 04:10:00,41.3,38.9,30.15,ENE,70,0.0,0.0,91,0.00,,,0.00,0,Wunderground v.1.15,2013-09-14 09:10:00,
2013-09-14 04:15:00,41.2,38.8,30.15,ENE,70,0.0,0.0,91,0.00,,,0.00,0,Wunderground v.1.15,2013-09-14 09:15:00,
2013-09-14 04:20:00,41.1,38.7,30.16,ENE,70,0.0,0.0,91,0.00,,,0.00,0,Wunderground v.1.15,2013-09-14 09:20:00,
2013-09-14 04:25:00,41.2,39.1,30.16,ENE,70,0.0,0.0,92,0.00,,,0.00,0,Wunderground v.1.15,2013-09-14 09:25:00,
2013-09-14 04:30:00,41.2,39.1,30.16,ENE,70,0.0,0.0,92,0.00,,,0.00,0,Wunderground v.1.15,2013-09-14 09:30:00,
2013-09-14 04:35:00,41.1,39.0,30.16,ENE,70,0.0,0.0,92,0.00,,,0.00,0,Wunderground v.1.15,2013-09-14 09:35:00,
2013-09-14 04:40:00,41.1,39.0,30.16,ENE,70,0.0,0.0,92,0.00,,,0.00,0,Wunderground v.1.15,2013-09-14 09:40:00,
2013-09-14 04:45:00,41.0,38.9,30.16,ENE,70,0.0,0.0,92,0.00,,,0.00,0,Wunderground v.1.15,2013-09-14 09:45:00,
2013-09-14 04:50:00,41.0,38.9,30.16,ENE,70,0.0,0.0,92,0.00,,,0.00,0,Wunderground v.1.15,2013-09-14 09:50:00,
2013-09-14 04:55:00,40.9,38.8,30.16,ENE,70,0.0,0.0,92,0.00,,,0.00,0,Wunderground v.1.15,2013-09-14 09:55:00,
2013-09-14 05:00:00,40.8,38.7,30.16,ENE,70,0.0,0.0,92,0.00,,,0.00,0,Wunderground v.1.15,2013-09-14 10:00:00,
2013-09-14 05:05:00,40.7,38.6,30.16,ENE,70,0.0,0.0,92,0.00,,,0.00,0,Wunderground v.1.15,2013-09-14 10:05:00,
2013-09-14 05:10:00,40.6,38.5,30.16,ENE,70,0.0,0.0,92,0.00,,,0.00,0,Wunderground v.1.15,2013-09-14 10:10:00,
2013-09-14 05:15:00,40.6,38.5,30.16,ENE,70,0.0,0.0,92,0.00,,,0.00,0,Wunderground v.1.15,2013-09-14 10:15:00,
2013-09-14 05:20:00,40.6,38.5,30.17,ENE,70,0.0,0.0,92,0.00,,,0.00,0,Wunderground v.1.15,2013-09-14 10:20:00,
2013-09-14 05:25:00,40.5,38.4,30.17,ENE,70,0.0,0.0,92,0.00,,,0.00,0,Wunderground v.1.15,2013-09-14 10:25:00,
2013-09-14 05:30:00,40.4,38.3,30.17,ENE,70,0.0,0.0,92,0.00,,,0.00,0,Wunderground v.1.15,2013-09-14 10:30:00,
2013-09-14 05:35:00,40.4,38.3,30.17,ENE,70,0.0,0.0,92,0.00,,,0.00,0,Wunderground v.1.15,2013-09-14 10:35:00,
2013-09-14 05:40:00,40.2,38.1,30.17,ENE,70,0.0,0.0,92,0.00,,,0.00,0,Wunderground v.1.15,2013-09-14 10:40:00,
2013-09-14 05:46:00,40.1,38.0,30.17,ENE,70,0.0,0.0,92,0.00,,,0.00,0,Wunderground v.1.15,2013-09-14 10:46:00,
2013-09-14 05:51:00,40.0,37.9,30.16,ENE,70,0.0,0.0,92,0.00,,,0.00,0,Wunderground v.1.15,2013-09-14 10:51:00,
2013-09-14 05:56:00,39.8,37.7,30.17,ENE,70,0.0,0.0,92,0.00,,,0.00,0,Wunderground v.1.15,2013-09-14 10:56:00,
2013-09-14 06:01:00,39.7,37.6,30.17,ENE,70,0.0,0.0,92,0.00,,,0.00,0,Wunderground v.1.15,2013-09-14 11:01:00,
2013-09-14 06:06:00,39.6,37.5,30.17,ENE,70,0.0,0.0,92,0.00,,,0.00,0,Wunderground v.1.15,2013-09-14 11:06:00,
2013-09-14 06:11:00,39.5,37.4,30.17,ENE,70,0.0,0.0,92,0.00,,,0.00,0,Wunderground v.1.15,2013-09-14 11:11:00,
2013-09-14 06:16:00,39.3,37.2,30.17,ENE,70,0.0,0.0,92,0.00,,,0.00,0,Wunderground v.1.15,2013-09-14 11:16:00,
2013-09-14 06:21:00,39.4,37.3,30.17,ENE,70,0.0,0.0,92,0.00,,,0.00,0,Wunderground v.1.15,2013-09-14 11:21:00,
2013-09-14 06:26:00,39.3,37.2,30.17,ENE,70,0.0,0.0,92,0.00,,,0.00,0,Wunderground v.1.15,2013-09-14 11:26:00,
2013-09-14 06:31:00,39.3,37.2,30.17,ENE,70,0.0,0.0,92,0.00,,,0.00,0,Wunderground v.1.15,2013-09-14 11:31:00,
2013-09-14 06:36:00,39.3,37.4,30.17,ENE,70,0.0,0.0,93,0.00,,,0.00,5,Wunderground v.1.15,2013-09-14 11:36:00,
2013-09-14 06:41:00,39.3,37.4,30.17,ENE,70,0.0,0.0,93,0.00,,,0.00,7,Wunderground v.1.15,2013-09-14 11:41:00,
2013-09-14 06:46:00,39.4,37.5,30.17,ENE,70,0.0,0.0,93,0.00,,,0.00,14,Wunderground v.1.15,2013-09-14 11:46:00,
2013-09-14 06:51:00,39.6,37.7,30.17,ENE,70,0.0,0.0,93,0.00,,,0.00,19,Wunderground v.1.15,2013-09-14 11:51:00,
2013-09-14 06:56:00,39.8,38.2,30.17,ENE,70,0.0,0.0,94,0.00,,,0.00,28,Wunderground v.1.15,2013-09-14 11:56:00,
2013-09-14 07:01:00,40.0,38.4,30.17,ENE,70,0.0,0.0,94,0.00,,,0.00,37,Wunderground v.1.15,2013-09-14 12:01:00,
2013-09-14 07:06:00,40.3,38.7,30.17,ENE,70,0.0,0.0,94,0.00,,,0.00,47,Wunderground v.1.15,2013-09-14 12:06:00,
2013-09-14 07:11:00,40.7,39.1,30.17,ENE,70,0.0,0.0,94,0.00,,,0.00,60,Wunderground v.1.15,2013-09-14 12:11:00,
2013-09-14 07:16:00,41.1,39.5,30.17,ENE,70,0.0,0.0,94,0.00,,,0.00,72,Wunderground v.1.15,2013-09-14 12:16:00,
2013-09-14 07:21:00,41.3,39.7,30.17,ENE,70,0.0,0.0,94,0.00,,,0.00,88,Wunderground v.1.15,2013-09-14 12:21:00,
2013-09-14 07:26:00,41.9,40.6,30.17,ENE,70,0.0,0.0,95,0.00,,,0.00,102,Wunderground v.1.15,2013-09-14 12:26:00,
2013-09-14 07:31:00,42.4,41.1,30.17,ENE,70,0.0,0.0,95,0.00,,,0.00,118,Wunderground v.1.15,2013-09-14 12:31:00,
2013-09-14 07:36:00,42.9,41.6,30.17,ENE,70,0.0,0.0,95,0.00,,,0.00,135,Wunderground v.1.15,2013-09-14 12:36:00,
2013-09-14 07:41:00,43.5,42.2,30.17,ENE,70,0.0,0.0,95,0.00,,,0.00,149,Wunderground v.1.15,2013-09-14 12:41:00,
2013-09-14 07:46:00,44.1,43.0,30.17,ENE,70,0.0,0.0,96,0.00,,,0.00,171,Wunderground v.1.15,2013-09-14 12:46:00,
2013-09-14 07:51:00,44.7,43.6,30.17,ENE,70,0.0,0.0,96,0.00,,,0.00,188,Wunderground v.1.15,2013-09-14 12:51:00,
2013-09-14 07:56:00,45.4,44.3,30.17,ENE,70,0.0,0.0,96,0.00,,,0.00,207,Wunderground v.1.15,2013-09-14 12:56:00,
2013-09-14 08:01:00,46.0,44.9,30.17,ENE,70,0.0,0.0,96,0.00,,,0.00,221,Wunderground v.1.15,2013-09-14 13:01:00,
2013-09-14 08:06:00,46.7,45.6,30.17,ENE,70,0.0,0.0,96,0.00,,,0.00,237,Wunderground v.1.15,2013-09-14 13:06:00,
2013-09-14 08:11:00,47.5,46.4,30.18,ENE,70,0.0,2.0,96,0.00,,,0.00,253,Wunderground v.1.15,2013-09-14 13:11:00,
2013-09-14 08:16:00,48.3,47.5,30.17,ENE,70,0.0,2.0,97,0.00,,,0.00,267,Wunderground v.1.15,2013-09-14 13:16:00,
2013-09-14 08:22:00,49.0,48.2,30.17,ENE,70,0.0,1.0,97,0.00,,,0.00,283,Wunderground v.1.15,2013-09-14 13:22:00,
2013-09-14 08:27:00,49.7,48.9,30.17,ENE,70,0.0,1.0,97,0.00,,,0.00,299,Wunderground v.1.15,2013-09-14 13:27:00,
2013-09-14 08:32:00,50.5,49.4,30.17,ENE,70,0.0,3.0,96,0.00,,,0.00,316,Wunderground v.1.15,2013-09-14 13:32:00,
2013-09-14 08:37:00,51.2,48.7,30.17,ENE,72,3.0,4.0,91,0.00,,,0.00,338,Wunderground v.1.15,2013-09-14 13:37:00,
2013-09-14 08:42:00,51.9,48.5,30.17,West,262,0.0,3.0,88,0.00,,,0.00,327,Wunderground v.1.15,2013-09-14 13:42:00,
2013-09-14 08:47:00,52.6,48.5,30.17,West,262,0.0,3.0,86,0.00,,,0.00,388,Wunderground v.1.15,2013-09-14 13:47:00,
2013-09-14 08:52:00,53.3,48.9,30.17,West,262,0.0,2.0,85,0.00,,,0.00,413,Wunderground v.1.15,2013-09-14 13:52:00,
2013-09-14 08:57:00,53.9,48.9,30.17,West,262,0.0,2.0,83,0.00,,,0.00,422,Wunderground v.1.15,2013-09-14 13:57:00,
2013-09-14 09:02:00,54.6,49.2,30.17,SW,215,0.0,2.0,82,0.00,,,0.00,434,Wunderground v.1.15,2013-09-14 14:02:00,
2013-09-14 09:07:00,55.2,49.5,30.17,SW,223,0.0,4.0,81,0.00,,,0.00,452,Wunderground v.1.15,2013-09-14 14:07:00,
2013-09-14 09:12:00,55.9,50.2,30.17,WSW,255,3.0,3.0,81,0.00,,,0.00,475,Wunderground v.1.15,2013-09-14 14:12:00,
2013-09-14 09:17:00,56.5,49.0,30.17,SSW,213,0.0,5.0,76,0.00,,,0.00,455,Wunderground v.1.15,2013-09-14 14:17:00,
2013-09-14 09:22:00,57.0,48.8,30.17,West,265,2.0,8.0,74,0.00,,,0.00,503,Wunderground v.1.15,2013-09-14 14:22:00,
2013-09-14 09:27:00,57.6,49.0,30.17,WSW,246,0.0,8.0,73,0.00,,,0.00,515,Wunderground v.1.15,2013-09-14 14:27:00,
2013-09-14 09:32:00,58.2,48.8,30.17,South,173,2.0,5.0,71,0.00,,,0.00,531,Wunderground v.1.15,2013-09-14 14:32:00,
2013-09-14 09:37:00,58.7,49.3,30.17,WSW,242,1.0,6.0,71,0.00,,,0.00,543,Wunderground v.1.15,2013-09-14 14:37:00,
2013-09-14 09:42:00,59.3,49.5,30.17,WSW,240,0.0,4.0,70,0.00,,,0.00,541,Wunderground v.1.15,2013-09-14 14:42:00,
2013-09-14 09:47:00,59.7,49.1,30.17,WSW,246,1.0,8.0,68,0.00,,,0.00,478,Wunderground v.1.15,2013-09-14 14:47:00,
2013-09-14 09:52:00,60.1,49.1,30.17,WSW,248,3.0,4.0,67,0.00,,,0.00,580,Wunderground v.1.15,2013-09-14 14:52:00,
2013-09-14 09:58:00,60.6,49.6,30.17,WSW,248,0.0,5.0,67,0.00,,,0.00,591,Wunderground v.1.15,2013-09-14 14:58:00,
2013-09-14 10:03:00,61.0,49.6,30.17,WSW,255,2.0,5.0,66,0.00,,,0.00,591,Wunderground v.1.15,2013-09-14 15:03:00,
2013-09-14 10:08:00,61.3,49.4,30.17,SSW,192,3.0,5.0,65,0.00,,,0.00,605,Wunderground v.1.15,2013-09-14 15:08:00,
2013-09-14 10:13:00,61.7,50.2,30.17,SW,230,0.0,3.0,66,0.00,,,0.00,622,Wunderground v.1.15,2013-09-14 15:13:00,
2013-09-14 10:18:00,62.2,49.9,30.17,WSW,240,3.0,4.0,64,0.00,,,0.00,631,Wunderground v.1.15,2013-09-14 15:18:00,
2013-09-14 10:23:00,62.6,50.2,30.17,WNW,296,4.0,5.0,64,0.00,,,0.00,649,Wunderground v.1.15,2013-09-14 15:23:00,
2013-09-14 10:28:00,62.9,50.1,30.17,WSW,239,3.0,7.0,63,0.00,,,0.00,647,Wunderground v.1.15,2013-09-14 15:28:00,
2013-09-14 10:33:00,63.2,49.1,30.16,WSW,242,3.0,6.0,60,0.00,,,0.00,608,Wunderground v.1.15,2013-09-14 15:33:00,
2013-09-14 10:38:00,63.4,49.3,30.16,South,185,0.0,6.0,60,0.00,,,0.00,668,Wunderground v.1.15,2013-09-14 15:38:00,
2013-09-14 10:43:00,63.8,49.2,30.16,WSW,254,3.0,6.0,59,0.00,,,0.00,691,Wunderground v.1.15,2013-09-14 15:43:00,
2013-09-14 10:48:00,64.2,49.1,30.16,WSW,248,1.0,6.0,58,0.00,,,0.00,705,Wunderground v.1.15,2013-09-14 15:48:00,
2013-09-14 10:53:00,64.4,48.8,30.16,WSW,247,2.0,5.0,57,0.00,,,0.00,686,Wunderground v.1.15,2013-09-14 15:53:00,
2013-09-14 10:58:00,64.7,49.6,30.16,WSW,250,1.0,6.0,58,0.00,,,0.00,710,Wunderground v.1.15,2013-09-14 15:58:00,
2013-09-14 11:03:00,64.9,48.3,30.16,South,176,0.0,8.0,55,0.00,,,0.00,708,Wunderground v.1.15,2013-09-14 16:03:00,
2013-09-14 11:08:00,65.1,48.5,30.15,WSW,242,3.0,8.0,55,0.00,,,0.00,731,Wunderground v.1.15,2013-09-14 16:08:00,
2013-09-14 11:13:00,65.3,48.7,30.15,West,273,0.0,7.0,55,0.00,,,0.00,744,Wunderground v.1.15,2013-09-14 16:13:00,
2013-09-14 11:18:00,65.4,48.3,30.15,West,266,1.0,7.0,54,0.00,,,0.00,752,Wunderground v.1.15,2013-09-14 16:18:00,
2013-09-14 11:23:00,65.7,48.6,30.15,SW,229,0.0,8.0,54,0.00,,,0.00,759,Wunderground v.1.15,2013-09-14 16:23:00,
2013-09-14 11:28:00,66.1,48.5,30.14,SE,140,4.0,8.0,53,0.00,,,0.00,770,Wunderground v.1.15,2013-09-14 16:28:00,
2013-09-14 11:33:00,66.4,49.2,30.14,West,274,3.0,7.0,54,0.00,,,0.00,784,Wunderground v.1.15,2013-09-14 16:33:00,
2013-09-14 11:38:00,66.8,48.6,30.14,WSW,252,3.0,7.0,52,0.00,,,0.00,793,Wunderground v.1.15,2013-09-14 16:38:00,
2013-09-14 11:43:00,66.9,48.2,30.14,WSW,247,2.0,7.0,51,0.00,,,0.00,809,Wunderground v.1.15,2013-09-14 16:43:00,
2013-09-14 11:48:00,66.9,47.1,30.14,SSE,163,1.0,7.0,49,0.00,,,0.00,816,Wunderground v.1.15,2013-09-14 16:48:00,
2013-09-14 11:53:00,67.0,48.8,30.14,SSE,152,0.0,2.0,52,0.00,,,0.00,846,Wunderground v.1.15,2013-09-14 16:53:00,
2013-09-14 11:58:00,67.2,48.5,30.14,WSW,249,0.0,6.0,51,0.00,,,0.00,819,Wunderground v.1.15,2013-09-14 16:58:00,
2013-09-14 12:03:00,67.3,48.0,30.14,WSW,242,0.0,6.0,50,0.00,,,0.00,751,Wunderground v.1.15,2013-09-14 17:03:00,
2013-09-14 12:08:00,67.4,47.0,30.13,West,267,0.0,6.0,48,0.00,,,0.00,837,Wunderground v.1.15,2013-09-14 17:08:00,
2013-09-14 12:13:00,67.7,47.8,30.13,WSW,258,4.0,8.0,49,0.00,,,0.00,816,Wunderground v.1.15,2013-09-14 17:13:00,
2013-09-14 12:18:00,67.6,47.2,30.13,WSW,243,5.0,8.0,48,0.00,,,0.00,838,Wunderground v.1.15,2013-09-14 17:18:00,
2013-09-14 12:23:00,67.8,47.4,30.13,WSW,243,0.0,6.0,48,0.00,,,0.00,838,Wunderground v.1.15,2013-09-14 17:23:00,
2013-09-14 12:28:00,68.1,47.1,30.12,West,264,2.0,6.0,47,0.00,,,0.00,805,Wunderground v.1.15,2013-09-14 17:28:00,
2013-09-14 12:34:00,68.3,47.8,30.12,WSW,242,4.0,9.0,48,0.00,,,0.00,759,Wunderground v.1.15,2013-09-14 17:34:00,
2013-09-14 12:39:00,68.3,47.8,30.12,WSW,247,5.0,9.0,48,0.00,,,0.00,863,Wunderground v.1.15,2013-09-14 17:39:00,
2013-09-14 12:44:00,68.6,48.1,30.12,WSW,258,0.0,5.0,48,0.00,,,0.00,735,Wunderground v.1.15,2013-09-14 17:44:00,
2013-09-14 12:49:00,68.8,48.9,30.11,WSW,246,5.0,5.0,49,0.00,,,0.00,830,Wunderground v.1.15,2013-09-14 17:49:00,
2013-09-14 12:54:00,69.0,48.5,30.11,SW,232,1.0,6.0,48,0.00,,,0.00,670,Wunderground v.1.15,2013-09-14 17:54:00,
2013-09-14 12:59:00,69.0,48.5,30.11,West,277,5.0,7.0,48,0.00,,,0.00,585,Wunderground v.1.15,2013-09-14 17:59:00,
2013-09-14 13:04:00,69.1,49.1,30.11,SSE,165,0.0,4.0,49,0.00,,,0.00,777,Wunderground v.1.15,2013-09-14 18:04:00,
2013-09-14 13:09:00,69.3,48.8,30.10,SSW,209,0.0,6.0,48,0.00,,,0.00,861,Wunderground v.1.15,2013-09-14 18:09:00,
2013-09-14 13:14:00,69.0,47.9,30.10,SSE,167,0.0,7.0,47,0.00,,,0.00,540,Wunderground v.1.15,2013-09-14 18:14:00,
2013-09-14 13:19:00,68.9,51.1,30.10,South,177,4.0,7.0,53,0.00,,,0.00,821,Wunderground v.1.15,2013-09-14 18:19:00,
2013-09-14 13:24:00,68.8,49.4,30.10,South,190,3.0,10.0,50,0.00,,,0.00,696,Wunderground v.1.15,2013-09-14 18:24:00,
2013-09-14 13:29:00,68.9,48.4,30.10,SSE,162,5.0,10.0,48,0.00,,,0.00,798,Wunderground v.1.15,2013-09-14 18:29:00,
2013-09-14 13:34:00,69.2,49.2,30.09,SSE,165,5.0,6.0,49,0.00,,,0.00,701,Wunderground v.1.15,2013-09-14 18:34:00,
2013-09-14 13:39:00,69.2,48.7,30.09,SSE,166,2.0,8.0,48,0.00,,,0.00,550,Wunderground v.1.15,2013-09-14 18:39:00,
2013-09-14 13:44:00,69.2,49.2,30.09,SW,234,0.0,4.0,49,0.00,,,0.00,700,Wunderground v.1.15,2013-09-14 18:44:00,
2013-09-14 13:49:00,69.4,48.3,30.08,SSE,164,0.0,7.0,47,0.00,,,0.00,759,Wunderground v.1.15,2013-09-14 18:49:00,
2013-09-14 13:54:00,69.4,48.3,30.08,South,188,4.0,8.0,47,0.00,,,0.00,777,Wunderground v.1.15,2013-09-14 18:54:00,
2013-09-14 13:59:00,69.4,49.4,30.08,SW,216,0.0,8.0,49,0.00,,,0.00,782,Wunderground v.1.15,2013-09-14 18:59:00,
2013-09-14 14:04:00,69.6,49.6,30.08,SSW,211,1.0,9.0,49,0.00,,,0.00,800,Wunderground v.1.15,2013-09-14 19:04:00,
2013-09-14 14:09:00,69.7,48.6,30.07,SE,134,9.0,9.0,47,0.00,,,0.00,691,Wunderground v.1.15,2013-09-14 19:09:00,
2013-09-14 14:14:00,69.7,49.1,30.07,South,178,5.0,8.0,48,0.00,,,0.00,800,Wunderground v.1.15,2013-09-14 19:14:00,
2013-09-14 14:19:00,69.7,50.2,30.07,South,184,3.0,9.0,50,0.00,,,0.00,838,Wunderground v.1.15,2013-09-14 19:19:00,
2013-09-14 14:24:00,69.7,49.7,30.07,South,171,7.0,7.0,49,0.00,,,0.00,777,Wunderground v.1.15,2013-09-14 19:24:00,
2013-09-14 14:29:00,69.8,49.8,30.06,South,169,2.0,9.0,49,0.00,,,0.00,805,Wunderground v.1.15,2013-09-14 19:29:00,
2013-09-14 14:34:00,70.1,50.0,30.06,South,177,4.0,7.0,49,0.00,,,0.00,728,Wunderground v.1.15,2013-09-14 19:34:00,
2013-09-14 14:40:00,70.1,48.9,30.06,SSE,154,6.0,6.0,47,0.00,,,0.00,726,Wunderground v.1.15,2013-09-14 19:40:00,
2013-09-14 14:45:00,70.1,49.5,30.06,South,169,0.0,8.0,48,0.00,,,0.00,670,Wunderground v.1.15,2013-09-14 19:45:00,
2013-09-14 14:50:00,70.2,49.6,30.06,South,171,3.0,4.0,48,0.00,,,0.00,705,Wunderground v.1.15,2013-09-14 19:50:00,
2013-09-14 14:55:00,70.1,48.9,30.06,SE,137,2.0,8.0,47,0.00,,,0.00,359,Wunderground v.1.15,2013-09-14 19:55:00,
2013-09-14 15:00:00,69.9,49.9,30.06,South,180,1.0,3.0,49,0.00,,,0.00,295,Wunderground v.1.15,2013-09-14 20:00:00,
2013-09-14 15:05:00,69.7,49.1,30.06,SSE,155,5.0,6.0,48,0.00,,,0.00,278,Wunderground v.1.15,2013-09-14 20:05:00,
2013-09-14 15:10:00,69.3,49.3,30.06,SW,223,1.0,2.0,49,0.00,,,0.00,329,Wunderground v.1.15,2013-09-14 20:10:00,
2013-09-14 15:15:00,69.2,49.2,30.06,South,176,0.0,5.0,49,0.00,,,0.00,445,Wunderground v.1.15,2013-09-14 20:15:00,
2013-09-14 15:20:00,69.2,50.3,30.05,SSW,205,3.0,4.0,51,0.00,,,0.00,503,Wunderground v.1.15,2013-09-14 20:20:00,
2013-09-14 15:25:00,69.5,49.5,30.05,SSW,192,2.0,7.0,49,0.00,,,0.00,547,Wunderground v.1.15,2013-09-14 20:25:00,
2013-09-14 15:30:00,69.5,49.5,30.05,SSW,196,0.0,2.0,49,0.00,,,0.00,274,Wunderground v.1.15,2013-09-14 20:30:00,
2013-09-14 15:35:00,69.5,50.0,30.04,SW,235,0.0,4.0,50,0.00,,,0.00,413,Wunderground v.1.15,2013-09-14 20:35:00,
2013-09-14 15:40:00,69.7,49.7,30.04,WSW,248,0.0,1.0,49,0.00,,,0.00,712,Wunderground v.1.15,2013-09-14 20:40:00,
2013-09-14 15:45:00,70.1,50.0,30.04,SW,225,0.0,6.0,49,0.00,,,0.00,645,Wunderground v.1.15,2013-09-14 20:45:00,
2013-09-14 15:50:00,70.5,50.4,30.04,SW,236,1.0,3.0,49,0.00,,,0.00,642,Wunderground v.1.15,2013-09-14 20:50:00,
2013-09-14 15:55:00,70.8,50.1,30.03,SSE,167,3.0,4.0,48,0.00,,,0.00,596,Wunderground v.1.15,2013-09-14 20:55:00,
2013-09-14 16:00:00,70.9,49.1,30.03,SW,233,1.0,3.0,46,0.00,,,0.00,582,Wunderground v.1.15,2013-09-14 21:00:00,
2013-09-14 16:05:00,71.0,49.2,30.03,WSW,248,3.0,7.0,46,0.00,,,0.00,527,Wunderground v.1.15,2013-09-14 21:05:00,
2013-09-14 16:10:00,70.9,49.1,30.03,South,171,1.0,6.0,46,0.00,,,0.00,483,Wunderground v.1.15,2013-09-14 21:10:00,
2013-09-14 16:15:00,70.8,50.7,30.03,SW,221,0.0,6.0,49,0.00,,,0.00,540,Wunderground v.1.15,2013-09-14 21:15:00,
2013-09-14 16:20:00,70.8,49.0,30.03,SSE,159,1.0,2.0,46,0.00,,,0.00,408,Wunderground v.1.15,2013-09-14 21:20:00,
2013-09-14 16:25:00,70.8,49.0,30.03,South,181,4.0,4.0,46,0.00,,,0.00,357,Wunderground v.1.15,2013-09-14 21:25:00,
2013-09-14 16:30:00,70.7,49.5,30.02,South,181,0.0,3.0,47,0.00,,,0.00,554,Wunderground v.1.15,2013-09-14 21:30:00,
2013-09-14 16:35:00,70.7,49.5,30.02,SSE,161,0.0,5.0,47,0.00,,,0.00,483,Wunderground v.1.15,2013-09-14 21:35:00,
2013-09-14 16:40:00,70.8,49.0,30.02,WSW,238,1.0,2.0,46,0.00,,,0.00,443,Wunderground v.1.15,2013-09-14 21:40:00,
2013-09-14 16:45:00,70.9,49.1,30.02,SW,221,1.0,4.0,46,0.00,,,0.00,410,Wunderground v.1.15,2013-09-14 21:45:00,
2013-09-14 16:50:00,71.0,49.2,30.03,South,175,3.0,3.0,46,0.00,,,0.00,385,Wunderground v.1.15,2013-09-14 21:50:00,
2013-09-14 16:55:00,70.9,49.1,30.02,SSE,160,0.0,5.0,46,0.00,,,0.00,367,Wunderground v.1.15,2013-09-14 21:55:00,
2013-09-14 17:00:00,70.9,49.1,30.02,SW,216,2.0,4.0,46,0.00,,,0.00,346,Wunderground v.1.15,2013-09-14 22:00:00,
2013-09-14 17:05:00,70.8,49.0,30.02,WNW,290,1.0,4.0,46,0.00,,,0.00,334,Wunderground v.1.15,2013-09-14 22:05:00,
2013-09-14 17:10:00,70.8,49.0,30.02,SW,229,1.0,2.0,46,0.00,,,0.00,316,Wunderground v.1.15,2013-09-14 22:10:00,
2013-09-14 17:15:00,70.6,48.8,30.02,WSW,250,1.0,9.0,46,0.00,,,0.00,301,Wunderground v.1.15,2013-09-14 22:15:00,
2013-09-14 17:20:00,70.3,48.5,30.02,South,183,0.0,2.0,46,0.00,,,0.00,288,Wunderground v.1.15,2013-09-14 22:20:00,
2013-09-14 17:25:00,70.1,48.9,30.02,WSW,242,1.0,3.0,47,0.00,,,0.00,278,Wunderground v.1.15,2013-09-14 22:25:00,
2013-09-14 17:30:00,70.0,48.8,30.02,South,182,1.0,2.0,47,0.00,,,0.00,265,Wunderground v.1.15,2013-09-14 22:30:00,
2013-09-14 17:35:00,69.9,49.3,30.02,SW,232,2.0,6.0,48,0.00,,,0.00,248,Wunderground v.1.15,2013-09-14 22:35:00,
2013-09-14 17:40:00,69.7,49.1,30.02,WSW,239,1.0,4.0,48,0.00,,,0.00,257,Wunderground v.1.15,2013-09-14 22:40:00,
2013-09-14 17:45:00,69.6,49.0,30.02,SSW,209,0.0,4.0,48,0.00,,,0.00,230,Wunderground v.1.15,2013-09-14 22:45:00,
2013-09-14 17:49:00,69.6,49.0,30.02,WSW,251,0.0,4.0,48,0.00,,,0.00,230,Wunderground v.1.15,2013-09-14 22:49:00,
2013-09-14 17:54:00,69.5,48.4,30.02,West,265,3.0,5.0,47,0.00,,,0.00,202,Wunderground v.1.15,2013-09-14 22:54:00,
2013-09-14 17:59:00,69.4,48.9,30.01,South,191,2.0,5.0,48,0.00,,,0.00,116,Wunderground v.1.15,2013-09-14 22:59:00,
2013-09-14 18:04:00,69.2,48.7,30.01,SSE,168,0.0,3.0,48,0.00,,,0.00,77,Wunderground v.1.15,2013-09-14 23:04:00,
2013-09-14 18:09:00,69.0,49.0,30.02,South,169,0.0,5.0,49,0.00,,,0.00,69,Wunderground v.1.15,2013-09-14 23:09:00,
2013-09-14 18:14:00,68.8,48.9,30.01,South,173,3.0,3.0,49,0.00,,,0.00,58,Wunderground v.1.15,2013-09-14 23:14:00,
2013-09-14 18:19:00,68.5,49.1,30.01,SW,232,0.0,3.0,50,0.00,,,0.00,42,Wunderground v.1.15,2013-09-14 23:19:00,
2013-09-14 18:24:00,68.2,48.8,30.01,SW,231,1.0,4.0,50,0.00,,,0.00,32,Wunderground v.1.15,2013-09-14 23:24:00,
2013-09-14 18:29:00,67.9,48.6,30.01,SW,234,2.0,4.0,50,0.00,,,0.00,28,Wunderground v.1.15,2013-09-14 23:29:00,
2013-09-14 18:34:00,67.6,48.3,30.01,WSW,237,0.0,4.0,50,0.00,,,0.00,26,Wunderground v.1.15,2013-09-14 23:34:00,
2013-09-14 18:39:00,67.4,48.6,30.01,SW,222,2.0,5.0,51,0.00,,,0.00,19,Wunderground v.1.15,2013-09-14 23:39:00,
2013-09-14 18:44:00,67.1,48.9,30.01,South,183,0.0,3.0,52,0.00,,,0.00,19,Wunderground v.1.15,2013-09-14 23:44:00,
2013-09-14 18:49:00,66.9,48.7,30.01,South,183,0.0,3.0,52,0.00,,,0.00,16,Wunderground v.1.15,2013-09-14 23:49:00,
2013-09-14 18:54:00,66.8,48.6,30.01,South,183,0.0,1.0,52,0.00,,,0.00,7,Wunderground v.1.15,2013-09-14 23:54:00,
2013-09-14 18:59:00,66.7,48.0,30.01,South,185,2.0,2.0,51,0.00,,,0.00,5,Wunderground v.1.15,2013-09-14 23:59:00,
2013-09-14 19:04:00,66.5,48.3,30.00,West,269,1.0,4.0,52,0.00,,,0.00,0,Wunderground v.1.15,2013-09-15 00:04:00,
2013-09-14 19:09:00,66.5,48.3,30.01,West,264,0.0,4.0,52,0.00,,,0.00,0,Wunderground v.1.15,2013-09-15 00:09:00,
2013-09-14 19:14:00,66.4,48.7,30.01,West,264,0.0,2.0,53,0.00,,,0.00,0,Wunderground v.1.15,2013-09-15 00:14:00,
2013-09-14 19:19:00,66.3,47.6,30.01,West,263,0.0,4.0,51,0.00,,,0.00,0,Wunderground v.1.15,2013-09-15 00:19:00,
2013-09-14 19:24:00,66.1,47.4,30.01,West,263,0.0,3.0,51,0.00,,,0.00,0,Wunderground v.1.15,2013-09-15 00:24:00,
2013-09-14 19:29:00,66.0,47.3,30.01,SW,215,0.0,3.0,51,0.00,,,0.00,0,Wunderground v.1.15,2013-09-15 00:29:00,
2013-09-14 19:34:00,65.9,47.3,30.01,WSW,246,0.0,4.0,51,0.00,,,0.00,0,Wunderground v.1.15,2013-09-15 00:34:00,
2013-09-14 19:39:00,65.8,47.2,30.01,SW,234,4.0,5.0,51,0.00,,,0.00,0,Wunderground v.1.15,2013-09-15 00:39:00,
2013-09-14 19:44:00,65.7,47.6,30.01,SW,223,0.0,2.0,52,0.00,,,0.00,0,Wunderground v.1.15,2013-09-15 00:44:00,
2013-09-14 19:49:00,65.5,47.4,30.01,WSW,242,2.0,2.0,52,0.00,,,0.00,0,Wunderground v.1.15,2013-09-15 00:49:00,
2013-09-14 19:54:00,65.4,47.8,30.01,WSW,242,0.0,1.0,53,0.00,,,0.00,0,Wunderground v.1.15,2013-09-15 00:54:00,
2013-09-14 19:59:00,65.2,47.6,30.01,WSW,242,0.0,1.0,53,0.00,,,0.00,0,Wunderground v.1.15,2013-09-15 00:59:00,
2013-09-14 20:04:00,65.0,47.9,30.01,WSW,244,0.0,4.0,54,0.00,,,0.00,0,Wunderground v.1.15,2013-09-15 01:04:00,
2013-09-14 20:09:00,64.9,48.3,30.01,SSW,198,0.0,4.0,55,0.00,,,0.00,0,Wunderground v.1.15,2013-09-15 01:09:00,
2013-09-14 20:15:00,64.7,48.2,30.01,West,261,0.0,4.0,55,0.00,,,0.00,0,Wunderground v.1.15,2013-09-15 01:15:00,
2013-09-14 20:20:00,64.6,48.5,30.01,West,261,0.0,0.0,56,0.00,,,0.00,0,Wunderground v.1.15,2013-09-15 01:20:00,
2013-09-14 20:25:00,64.5,48.4,30.01,West,261,0.0,1.0,56,0.00,,,0.00,0,Wunderground v.1.15,2013-09-15 01:25:00,
2013-09-14 20:30:00,64.5,48.9,30.00,WSW,252,0.0,0.0,57,0.00,,,0.00,0,Wunderground v.1.15,2013-09-15 01:30:00,
2013-09-14 20:35:00,64.4,48.8,30.00,South,186,1.0,2.0,57,0.00,,,0.00,0,Wunderground v.1.15,2013-09-15 01:35:00,
2013-09-14 20:40:00,64.4,48.8,30.00,South,187,0.0,1.0,57,0.00,,,0.00,0,Wunderground v.1.15,2013-09-15 01:40:00,
2013-09-14 20:45:00,64.3,48.7,30.00,WSW,258,0.0,3.0,57,0.00,,,0.00,0,Wunderground v.1.15,2013-09-15 01:45:00,
2013-09-14 20:50:00,64.3,48.7,30.00,West,265,0.0,0.0,57,0.00,,,0.00,0,Wunderground v.1.15,2013-09-15 01:50:00,
2013-09-14 20:55:00,64.2,48.6,30.00,SW,223,0.0,2.0,57,0.00,,,0.00,0,Wunderground v.1.15,2013-09-15 01:55:00,
2013-09-14 21:00:00,64.1,49.0,30.00,SSW,193,0.0,0.0,58,0.00,,,0.00,0,Wunderground v.1.15,2013-09-15 02:00:00,
2013-09-14 21:05:00,64.1,49.0,29.99,SSW,208,0.0,1.0,58,0.00,,,0.00,0,Wunderground v.1.15,2013-09-15 02:05:00,
2013-09-14 21:10:00,64.0,48.9,29.99,SSW,208,0.0,0.0,58,0.00,,,0.00,0,Wunderground v.1.15,2013-09-15 02:10:00,
2013-09-14 21:15:00,64.0,49.4,29.99,SSW,208,0.0,2.0,59,0.00,,,0.00,0,Wunderground v.1.15,2013-09-15 02:15:00,
2013-09-14 21:20:00,64.0,49.4,30.00,SSW,206,0.0,0.0,59,0.00,,,0.00,0,Wunderground v.1.15,2013-09-15 02:20:00,
2013-09-14 21:25:00,63.9,49.3,30.00,South,185,0.0,3.0,59,0.00,,,0.00,0,Wunderground v.1.15,2013-09-15 02:25:00,
2013-09-14 21:30:00,63.9,48.8,29.99,WSW,245,2.0,4.0,58,0.00,,,0.00,0,Wunderground v.1.15,2013-09-15 02:30:00,
2013-09-14 21:35:00,64.0,48.9,29.99,South,175,1.0,5.0,58,0.00,,,0.00,0,Wunderground v.1.15,2013-09-15 02:35:00,
2013-09-14 21:40:00,64.0,48.9,29.99,WSW,242,2.0,3.0,58,0.00,,,0.00,0,Wunderground v.1.15,2013-09-15 02:40:00,
2013-09-14 21:45:00,64.0,48.9,29.99,SW,225,2.0,6.0,58,0.00,,,0.00,0,Wunderground v.1.15,2013-09-15 02:45:00,
2013-09-14 21:50:00,64.1,49.5,29.99,SSW,209,1.0,3.0,59,0.00,,,0.00,0,Wunderground v.1.15,2013-09-15 02:50:00,
2013-09-14 21:55:00,64.0,49.4,29.99,SSE,148,1.0,5.0,59,0.00,,,0.00,0,Wunderground v.1.15,2013-09-15 02:55:00,
2013-09-14 22:00:00,64.0,49.4,29.99,SSE,153,1.0,5.0,59,0.00,,,0.00,0,Wunderground v.1.15,2013-09-15 03:00:00,
2013-09-14 22:05:00,63.9,49.7,29.98,SSE,157,5.0,8.0,60,0.00,,,0.00,0,Wunderground v.1.15,2013-09-15 03:05:00,
2013-09-14 22:10:00,63.8,49.6,29.98,WSW,245,1.0,10.0,60,0.00,,,0.00,0,Wunderground v.1.15,2013-09-15 03:10:00,
2013-09-14 22:15:00,63.7,49.5,29.98,SSE,149,2.0,11.0,60,0.00,,,0.00,0,Wunderground v.1.15,2013-09-15 03:15:00,
2013-09-14 22:20:00,63.7,49.1,29.98,WSW,252,2.0,5.0,59,0.00,,,0.00,0,Wunderground v.1.15,2013-09-15 03:20:00,
2013-09-14 22:25:00,63.6,49.0,29.98,South,188,1.0,9.0,59,0.00,,,0.00,0,Wunderground v.1.15,2013-09-15 03:25:00,
2013-09-14 22:30:00,63.6,49.0,29.98,SE,132,3.0,5.0,59,0.00,,,0.00,0,Wunderground v.1.15,2013-09-15 03:30:00,
2013-09-14 22:35:00,63.6,48.5,29.98,West,265,3.0,7.0,58,0.00,,,0.00,0,Wunderground v.1.15,2013-09-15 03:35:00,
2013-09-14 22:40:00,63.5,48.9,29.98,SW,217,2.0,3.0,59,0.00,,,0.00,0,Wunderground v.1.15,2013-09-15 03:40:00,
2013-09-14 22:45:00,63.5,48.5,29.99,South,173,1.0,5.0,58,0.00,,,0.00,0,Wunderground v.1.15,2013-09-15 03:45:00,
2013-09-14 22:50:00,63.4,48.8,29.99,SSE,168,1.0,1.0,59,0.00,,,0.00,0,Wunderground v.1.15,2013-09-15 03:50:00,
2013-09-14 22:55:00,63.3,49.2,30.00,SSW,196,0.0,4.0,60,0.00,,,0.00,0,Wunderground v.1.15,2013-09-15 03:55:00,
2013-09-14 23:00:00,63.2,48.6,30.00,ESE,123,0.0,2.0,59,0.00,,,0.00,0,Wunderground v.1.15,2013-09-15 04:00:00,
2013-09-14 23:01:00,63.2,48.6,30.00,ESE,123,0.0,2.0,59,0.00,,,0.00,0,Wunderground v.1.15,2013-09-15 04:01:00,
2013-09-14 23:06:00,63.1,48.5,30.00,SW,234,0.0,5.0,59,0.00,,,0.00,0,Wunderground v.1.15,2013-09-15 04:06:00,
2013-09-14 23:11:00,63.1,48.1,30.00,SW,224,0.0,4.0,58,0.00,,,0.00,0,Wunderground v.1.15,2013-09-15 04:11:00,
2013-09-14 23:16:00,63.1,48.1,30.00,SSW,197,0.0,4.0,58,0.00,,,0.00,0,Wunderground v.1.15,2013-09-15 04:16:00,
2013-09-14 23:21:00,63.1,48.1,30.00,SSW,205,0.0,2.0,58,0.00,,,0.00,0,Wunderground v.1.15,2013-09-15 04:21:00,
2013-09-14 23:26:00,63.0,48.0,29.99,WSW,244,0.0,4.0,58,0.00,,,0.00,0,Wunderground v.1.15,2013-09-15 04:26:00,
2013-09-14 23:31:00,63.0,48.0,29.99,WSW,239,0.0,3.0,58,0.00,,,0.00,0,Wunderground v.1.15,2013-09-15 04:31:00,
2013-09-14 23:36:00,62.9,47.9,29.99,South,182,0.0,3.0,58,0.00,,,0.00,0,Wunderground v.1.15,2013-09-15 04:36:00,
2013-09-14 23:41:00,62.9,47.9,29.99,SE,125,1.0,3.0,58,0.00,,,0.00,0,Wunderground v.1.15,2013-09-15 04:41:00,
2013-09-14 23:46:00,62.9,47.9,29.99,SE,143,0.0,7.0,58,0.00,,,0.00,0,Wunderground v.1.15,2013-09-15 04:46:00,
2013-09-14 23:51:00,62.8,47.8,29.99,South,174,0.0,3.0,58,0.00,,,0.00,0,Wunderground v.1.15,2013-09-15 04:51:00,
2013-09-14 23:56:00,62.8,47.8,29.99,WSW,246,2.0,8.0,58,0.00,,,0.00,0,Wunderground v.1.15,2013-09-15 04:56:00,